Tracking 19245 objects as of 17-Aug-2018
HD Live streaming from Space Station
objects crossing your sky now

FENGYUN 1C DEB

Track FENGYUN 1C DEB now!
10-day predictions


NORAD ID: 30207
Int'l Code: 1999-025VQ
Perigee: 785.8 km
Apogee: 1,172.7 km
Inclination: 98.5 °
Period: 104.5 minutes
Semi major axis: 7350 km
RCS: 0.036 m2 (small)
Launch date: May 10, 1999
Source: People's Republic of China (PRC)
Launch site: Taiyaun Space Center, China (TSC)

Note: This is SATELLITE DEBRIS
aabbcc
Your satellite tracking list
Your tracking list is empty




NASA's NSSDC Master Catalog

Two Line Element Set (TLE):
1 30207U 99025VQ  18228.93556848  .00000031  00000-0  52305-4 0  9999
2 30207  98.4981 208.4097 0263219 180.2631 237.1803 13.77690850582383
Source of the keplerian elements: AFSPC